Weather History for Cordova, AK

Change the Weather History Date:

Monday, February 10, 2014

  Actual Average Record
Temperature  
Mean Temperature 20 °F -  
Max Temperature 30 °F 35 °F 49 °F (1991)
Min Temperature 9 °F 19 °F -11 °F (1979)
Degree Days  
Heating Degree Days 46    
Moisture  
Dew Point 7 °F    
Average Humidity 52    
Maximum Humidity 67    
Minimum Humidity 39    
Precipitation  
Precipitation 0.00 in - - ()
Snow  
Snow 0.00 in - - ()
Snow Depth 1.00 in    
Sea Level Pressure  
Sea Level Pressure 29.80 in    
Wind  
Wind Speed 8 mph (SE)    
Max Wind Speed 15 mph    
Max Gust Speed 29 mph    
Visibility 10 miles    
Events Snow    
Averages and records for this station are not official NWS values.
T = Trace of Precipitation, MM = Missing Value Source: NWS Daily Summary

Daily Weather History Graph

Daily Weather History Graph

Search for Another Location

Airport:

Trip Planner

Search our weather history database for the weather conditions in past years. The results will help you decide how hot, cold, wet, or windy it might be!

Date:

Astronomy

Feb. 10, 2014 Rise Set
Actual Time 8:34 AM AKST 5:18 PM AKST
Civil Twilight 7:48 AM AKST 6:04 PM AKST
Nautical Twilight 6:58 AM AKST 6:54 PM AKST
Astronomical Twilight 6:10 AM AKST 7:43 PM AKST
Moon 1:26 PM AKST (2/10) 6:04 AM AKST (2/10)
Length of Visible Light 10h 15m
Length of Day
8h 43m
Waxing Gibbous, 85% of the Moon is Illuminated
Feb 10
Waxing Gibbous
Feb 14
Full
Feb 22
Last Quarter
Feb 28
New
Mar 8
First Quarter

Hourly Weather History & Observations

Time (AKST) Temp. Windchill Dew Point Humidity Pressure Visibility Wind Dir Wind Speed Gust Speed Precip Events Conditions
12:53 AM 30.0 °F 19.1 °F 16.0 °F 56% 29.78 in 10.0 mi ENE 15.0 mph 28.8 mph N/A   Overcast
1:53 AM 28.9 °F 18.2 °F 19.0 °F 67% 29.80 in 9.0 mi NE 13.8 mph 24.2 mph 0.00 in Snow Light Snow
3:53 AM 28.9 °F 18.2 °F 18.0 °F 64% 29.82 in 10.0 mi ENE 13.8 mph 26.5 mph N/A   Overcast
4:53 AM 28.9 °F 18.2 °F 17.1 °F 61% 29.83 in 10.0 mi ENE 13.8 mph 20.7 mph 0.00 in   Overcast
5:53 AM 30.0 °F 21.1 °F 12.0 °F 47% 29.82 in 10.0 mi ENE 10.4 mph - N/A   Mostly Cloudy
6:53 AM 30.0 °F 23.2 °F 9.0 °F 41% 29.83 in 10.0 mi East 6.9 mph - N/A   Mostly Cloudy
7:53 AM 26.1 °F 19.4 °F 10.0 °F 51% 29.83 in 10.0 mi WNW 5.8 mph - N/A   Scattered Clouds
8:53 AM 21.9 °F 15.7 °F 8.1 °F 55% 29.83 in 10.0 mi SSW 4.6 mph - N/A   Scattered Clouds
9:53 AM 19.9 °F - 6.1 °F 55% 29.83 in 10.0 mi Calm Calm - N/A   Scattered Clouds
10:53 AM 24.1 °F - 8.1 °F 51% 29.83 in 10.0 mi Calm Calm - N/A   Partly Cloudy
11:53 AM 26.1 °F - 8.1 °F 47% 29.82 in 10.0 mi Calm Calm - N/A   Clear
12:53 PM 28.9 °F 22.8 °F 8.1 °F 41% 29.80 in 10.0 mi SSE 5.8 mph - N/A   Clear
1:53 PM 28.9 °F 25.2 °F 8.1 °F 41% 29.79 in 10.0 mi SSE 3.5 mph - N/A   Clear
2:53 PM 28.0 °F 20.8 °F 6.1 °F 39% 29.78 in 10.0 mi South 6.9 mph - N/A   Clear
3:53 PM 25.0 °F 20.7 °F 3.9 °F 41% 29.78 in 10.0 mi SSE 3.5 mph - N/A   Clear
4:53 PM 21.9 °F 13.4 °F 3.9 °F 46% 29.77 in 10.0 mi South 6.9 mph - N/A   Clear
5:53 PM 16.0 °F 7.4 °F 1.9 °F 54% 29.76 in 10.0 mi South 5.8 mph - N/A   Clear
6:53 PM 12.9 °F 6.9 °F -0.0 °F 56% 29.78 in 10.0 mi Variable 3.5 mph - N/A   Clear
7:53 PM 14.0 °F 8.2 °F 1.0 °F 56% 29.78 in 10.0 mi South 3.5 mph - N/A   Clear
8:53 PM 12.0 °F 2.7 °F 1.9 °F 64% 29.76 in 10.0 mi East 5.8 mph - N/A   Clear
9:53 PM 15.1 °F - -2.0 °F 47% 29.77 in 10.0 mi Calm Calm - N/A   Clear
10:53 PM 9.0 °F - -0.9 °F 64% 29.77 in 10.0 mi Calm Calm - N/A   Clear
11:53 PM 12.0 °F - -2.0 °F 53% 29.77 in 10.0 mi Calm Calm - N/A   Clear